Time,TemperatureF,DewpointF,PressureIn,WindDirection,WindDirectionDegrees,WindSpeedMPH,WindSpeedGustMPH,Humidity,HourlyPrecipIn,Conditions,Clouds,dailyrainin,SoftwareType,DateUTC
2013-02-10 00:12:00,30.4,24.0,30.22,SE,135,2.0,9.0,77,0.00,,,0.00,weatherlink.com 1.10,2013-02-10 05:12:00,
2013-02-10 00:27:00,30.4,24.0,30.22,ESE,117,5.0,8.0,77,0.00,,,0.00,weatherlink.com 1.10,2013-02-10 05:27:00,
2013-02-10 00:42:00,30.4,24.0,30.21,ESE,113,3.0,10.0,77,0.00,,,0.00,weatherlink.com 1.10,2013-02-10 05:42:00,
2013-02-10 00:57:00,30.4,24.0,30.21,SE,134,5.0,10.0,77,0.00,,,0.00,weatherlink.com 1.10,2013-02-10 05:57:00,
2013-02-10 01:12:00,30.8,24.0,30.20,ENE,70,2.0,7.0,76,0.00,,,0.00,weatherlink.com 1.10,2013-02-10 06:12:00,
2013-02-10 01:27:00,31.1,24.0,30.19,ESE,115,1.0,8.0,75,0.00,,,0.00,weatherlink.com 1.10,2013-02-10 06:27:00,
2013-02-10 01:42:00,31.4,24.0,30.19,SSE,151,1.0,8.0,75,0.00,,,0.00,weatherlink.com 1.10,2013-02-10 06:42:00,
2013-02-10 01:57:00,31.4,25.0,30.19,SSE,147,1.0,9.0,76,0.00,,,0.00,weatherlink.com 1.10,2013-02-10 06:57:00,
2013-02-10 02:12:00,31.4,25.0,30.18,ESE,123,2.0,9.0,76,0.00,,,0.00,weatherlink.com 1.10,2013-02-10 07:12:00,
2013-02-10 02:27:00,31.3,25.0,30.18,SSE,160,5.0,11.0,76,0.00,,,0.00,weatherlink.com 1.10,2013-02-10 07:27:00,
2013-02-10 02:42:00,31.2,25.0,30.18,East,80,4.0,8.0,77,0.00,,,0.00,weatherlink.com 1.10,2013-02-10 07:42:00,
2013-02-10 02:57:00,31.2,25.0,30.18,WSW,257,2.0,6.0,77,0.00,,,0.00,weatherlink.com 1.10,2013-02-10 07:57:00,
2013-02-10 03:12:00,31.4,25.0,30.18,ESE,108,4.0,11.0,77,0.00,,,0.00,weatherlink.com 1.10,2013-02-10 08:12:00,
2013-02-10 03:27:00,31.5,25.0,30.18,ESE,120,3.0,11.0,77,0.00,,,0.00,weatherlink.com 1.10,2013-02-10 08:27:00,
2013-02-10 03:42:00,31.4,25.0,30.18,SE,139,2.0,8.0,77,0.00,,,0.00,weatherlink.com 1.10,2013-02-10 08:42:00,
2013-02-10 03:57:00,31.4,25.0,30.18,SE,141,5.0,7.0,77,0.00,,,0.00,weatherlink.com 1.10,2013-02-10 08:57:00,
2013-02-10 04:12:00,31.4,25.0,30.17,SE,137,5.0,7.0,77,0.00,,,0.00,weatherlink.com 1.10,2013-02-10 09:12:00,
2013-02-10 04:27:00,31.2,25.0,30.17,SE,126,3.0,6.0,78,0.00,,,0.00,weatherlink.com 1.10,2013-02-10 09:27:00,
2013-02-10 04:42:00,31.3,25.0,30.17,SE,145,3.0,8.0,78,0.00,,,0.00,weatherlink.com 1.10,2013-02-10 09:42:00,
2013-02-10 04:57:00,31.4,25.0,30.17,SE,141,5.0,8.0,78,0.00,,,0.00,weatherlink.com 1.10,2013-02-10 09:57:00,
2013-02-10 05:13:00,31.6,25.0,30.16,ENE,70,2.0,7.0,77,0.00,,,0.00,weatherlink.com 1.10,2013-02-10 10:13:00,
2013-02-10 05:27:00,31.8,25.0,30.15,ESE,119,0.0,6.0,77,0.00,,,0.00,weatherlink.com 1.10,2013-02-10 10:27:00,
2013-02-10 05:42:00,31.7,26.0,30.13,NE,43,0.0,2.0,80,0.00,,,0.00,weatherlink.com 1.10,2013-02-10 10:42:00,
2013-02-10 05:57:00,31.7,26.0,30.14,ESE,122,2.0,5.0,80,0.00,,,0.00,weatherlink.com 1.10,2013-02-10 10:57:00,
2013-02-10 06:12:00,31.9,26.0,30.12,ESE,120,2.0,7.0,80,0.00,,,0.00,weatherlink.com 1.10,2013-02-10 11:12:00,
2013-02-10 06:27:00,31.5,26.0,30.13,ESE,113,0.0,2.0,81,0.00,,,0.00,weatherlink.com 1.10,2013-02-10 11:27:00,
2013-02-10 06:42:00,31.5,26.0,30.13,SE,131,1.0,2.0,81,0.00,,,0.00,weatherlink.com 1.10,2013-02-10 11:42:00,
2013-02-10 06:57:00,31.8,26.0,30.13,SE,138,1.0,5.0,80,0.00,,,0.00,weatherlink.com 1.10,2013-02-10 11:57:00,
2013-02-10 07:12:00,31.9,26.0,30.13,ESE,118,4.0,4.0,80,0.00,,,0.00,weatherlink.com 1.10,2013-02-10 12:12:00,
2013-02-10 07:27:00,32.1,27.0,30.13,SE,135,2.0,7.0,80,0.00,,,0.00,weatherlink.com 1.10,2013-02-10 12:27:00,
2013-02-10 07:43:00,32.3,27.0,30.12,ESE,110,1.0,5.0,80,0.00,,,0.00,weatherlink.com 1.10,2013-02-10 12:43:00,
2013-02-10 07:58:00,32.7,27.0,30.10,NE,51,2.0,7.0,79,0.00,,,0.00,weatherlink.com 1.10,2013-02-10 12:58:00,
2013-02-10 08:13:00,33.0,27.0,30.09,ESE,105,3.0,9.0,79,0.00,,,0.00,weatherlink.com 1.10,2013-02-10 13:13:00,
2013-02-10 08:28:00,33.2,28.0,30.08,ESE,119,1.0,6.0,80,0.00,,,0.00,weatherlink.com 1.10,2013-02-10 13:28:00,
2013-02-10 08:43:00,33.5,28.0,30.07,ESE,110,1.0,7.0,79,0.00,,,0.00,weatherlink.com 1.10,2013-02-10 13:43:00,
2013-02-10 08:58:00,33.8,28.0,30.07,ESE,116,6.0,10.0,79,0.00,,,0.00,weatherlink.com 1.10,2013-02-10 13:58:00,
2013-02-10 09:13:00,33.8,28.0,30.06,WSW,250,2.0,9.0,79,0.00,,,0.00,weatherlink.com 1.10,2013-02-10 14:13:00,
2013-02-10 09:28:00,34.2,28.0,30.07,ESE,121,3.0,10.0,78,0.00,,,0.00,weatherlink.com 1.10,2013-02-10 14:28:00,
2013-02-10 09:44:00,34.9,28.0,30.08,SE,139,5.0,10.0,76,0.00,,,0.00,weatherlink.com 1.10,2013-02-10 14:44:00,
2013-02-10 09:58:00,35.3,28.0,30.07,ESE,120,6.0,14.0,76,0.00,,,0.00,weatherlink.com 1.10,2013-02-10 14:58:00,
2013-02-10 10:13:00,35.7,29.0,30.07,SE,135,4.0,11.0,75,0.00,,,0.00,weatherlink.com 1.10,2013-02-10 15:13:00,
2013-02-10 10:28:00,36.1,29.0,30.06,South,191,6.0,12.0,74,0.00,,,0.00,weatherlink.com 1.10,2013-02-10 15:28:00,
2013-02-10 10:43:00,36.9,29.0,30.05,SE,125,6.0,12.0,73,0.00,,,0.00,weatherlink.com 1.10,2013-02-10 15:43:00,
2013-02-10 10:58:00,37.5,30.0,30.04,ESE,119,4.0,12.0,73,0.00,,,0.00,weatherlink.com 1.10,2013-02-10 15:58:00,
2013-02-10 11:13:00,38.1,30.0,30.02,ESE,107,4.0,11.0,73,0.00,,,0.00,weatherlink.com 1.10,2013-02-10 16:13:00,
2013-02-10 11:28:00,38.9,31.0,30.01,ESE,122,8.0,12.0,74,0.00,,,0.00,weatherlink.com 1.10,2013-02-10 16:28:00,
2013-02-10 11:43:00,39.3,32.0,30.00,SSE,159,4.0,11.0,76,0.00,,,0.00,weatherlink.com 1.10,2013-02-10 16:43:00,
2013-02-10 11:58:00,39.6,34.0,29.99,SE,142,7.0,10.0,80,0.00,,,0.00,weatherlink.com 1.10,2013-02-10 16:58:00,
2013-02-10 12:13:00,40.1,35.0,29.98,SE,135,5.0,11.0,81,0.00,,,0.00,weatherlink.com 1.10,2013-02-10 17:13:00,
2013-02-10 12:28:00,40.7,35.0,29.95,ESE,118,1.0,8.0,80,0.00,,,0.00,weatherlink.com 1.10,2013-02-10 17:28:00,
2013-02-10 12:44:00,41.5,35.0,29.93,ESE,113,5.0,12.0,79,0.00,,,0.00,weatherlink.com 1.10,2013-02-10 17:44:00,
2013-02-10 12:59:00,42.4,36.0,29.93,ESE,106,9.0,9.0,79,0.00,,,0.00,weatherlink.com 1.10,2013-02-10 17:59:00,
2013-02-10 13:14:00,42.6,36.0,29.92,SE,135,3.0,9.0,78,0.00,,,0.00,weatherlink.com 1.10,2013-02-10 18:14:00,
2013-02-10 13:29:00,43.1,36.0,29.91,SSE,150,6.0,13.0,76,0.00,,,0.00,weatherlink.com 1.10,2013-02-10 18:29:00,
2013-02-10 13:44:00,43.3,36.0,29.91,East,83,10.0,14.0,76,0.00,,,0.00,weatherlink.com 1.10,2013-02-10 18:44:00,
2013-02-10 13:59:00,43.5,36.0,29.90,SE,134,7.0,11.0,76,0.00,,,0.00,weatherlink.com 1.10,2013-02-10 18:59:00,
2013-02-10 14:14:00,43.5,36.0,29.89,ESE,103,3.0,12.0,76,0.00,,,0.00,weatherlink.com 1.10,2013-02-10 19:14:00,
2013-02-10 14:29:00,43.7,36.0,29.87,ESE,106,2.0,11.0,75,0.00,,,0.00,weatherlink.com 1.10,2013-02-10 19:29:00,
2013-02-10 14:44:00,44.0,37.0,29.86,SE,135,9.0,12.0,75,0.00,,,0.00,weatherlink.com 1.10,2013-02-10 19:44:00,
2013-02-10 14:59:00,44.5,37.0,29.85,SE,124,9.0,13.0,75,0.00,,,0.00,weatherlink.com 1.10,2013-02-10 19:59:00,
2013-02-10 15:14:00,44.0,38.0,29.85,East,92,4.0,10.0,78,0.00,,,0.00,weatherlink.com 1.10,2013-02-10 20:14:00,
2013-02-10 15:29:00,43.7,38.0,29.85,SE,124,6.0,11.0,80,0.00,,,0.00,weatherlink.com 1.10,2013-02-10 20:29:00,
2013-02-10 15:44:00,42.8,38.0,29.82,East,101,7.0,10.0,84,0.03,,,0.03,weatherlink.com 1.10,2013-02-10 20:44:00,
2013-02-10 15:59:00,42.4,39.0,29.80,SE,143,5.0,10.0,87,0.05,,,0.05,weatherlink.com 1.10,2013-02-10 20:59:00,
2013-02-10 16:14:00,42.5,39.0,29.79,ESE,123,6.0,12.0,88,0.06,,,0.06,weatherlink.com 1.10,2013-02-10 21:14:00,
2013-02-10 16:29:00,42.3,39.0,29.77,SE,127,5.0,6.0,89,0.06,,,0.07,weatherlink.com 1.10,2013-02-10 21:29:00,
2013-02-10 16:44:00,42.7,40.0,29.77,ESE,113,14.0,14.0,89,0.04,,,0.07,weatherlink.com 1.10,2013-02-10 21:44:00,
2013-02-10 16:59:00,42.9,40.0,29.77,SE,135,4.0,15.0,88,0.02,,,0.07,weatherlink.com 1.10,2013-02-10 21:59:00,
2013-02-10 17:14:00,43.0,39.0,29.75,SSW,195,3.0,13.0,87,0.01,,,0.07,weatherlink.com 1.10,2013-02-10 22:14:00,
2013-02-10 17:29:00,43.1,39.0,29.75,ESE,122,6.0,14.0,86,0.00,,,0.07,weatherlink.com 1.10,2013-02-10 22:29:00,
2013-02-10 17:44:00,43.2,39.0,29.74,ESE,105,5.0,16.0,85,0.00,,,0.07,weatherlink.com 1.10,2013-02-10 22:44:00,
2013-02-10 17:59:00,43.1,39.0,29.73,South,176,5.0,13.0,86,0.00,,,0.07,weatherlink.com 1.10,2013-02-10 22:59:00,
2013-02-10 18:14:00,42.9,39.0,29.73,SSE,149,7.0,14.0,86,0.00,,,0.07,weatherlink.com 1.10,2013-02-10 23:14:00,
2013-02-10 18:29:00,43.0,39.0,29.73,ESE,108,7.0,14.0,85,0.00,,,0.07,weatherlink.com 1.10,2013-02-10 23:29:00,
2013-02-10 18:44:00,43.3,39.0,29.73,East,84,3.0,13.0,85,0.00,,,0.07,weatherlink.com 1.10,2013-02-10 23:44:00,
2013-02-10 18:59:00,43.5,39.0,29.72,SE,127,5.0,10.0,85,0.00,,,0.07,weatherlink.com 1.10,2013-02-10 23:59:00,
2013-02-10 19:14:00,43.7,40.0,29.72,ESE,122,9.0,10.0,85,0.00,,,0.07,weatherlink.com 1.10,2013-02-11 00:14:00,
2013-02-10 19:29:00,45.3,42.0,29.73,South,181,11.0,26.0,87,0.00,,,0.07,weatherlink.com 1.10,2013-02-11 00:29:00,
2013-02-10 19:44:00,45.6,43.0,29.71,East,92,6.0,20.0,89,0.00,,,0.07,weatherlink.com 1.10,2013-02-11 00:44:00,
2013-02-10 19:59:00,45.7,43.0,29.71,SSE,164,4.0,16.0,90,0.00,,,0.07,weatherlink.com 1.10,2013-02-11 00:59:00,
2013-02-10 20:15:00,45.9,43.0,29.71,SSE,156,8.0,18.0,90,0.00,,,0.07,weatherlink.com 1.10,2013-02-11 01:15:00,
2013-02-10 20:30:00,46.0,44.0,29.72,SSE,161,6.0,18.0,92,0.00,,,0.07,weatherlink.com 1.10,2013-02-11 01:30:00,
2013-02-10 20:45:00,46.1,44.0,29.71,SE,146,7.0,17.0,92,0.01,,,0.08,weatherlink.com 1.10,2013-02-11 01:45:00,
2013-02-10 21:00:00,46.1,44.0,29.71,SSE,162,4.0,16.0,93,0.01,,,0.08,weatherlink.com 1.10,2013-02-11 02:00:00,
2013-02-10 21:15:00,46.1,45.0,29.71,SSE,159,8.0,15.0,94,0.01,,,0.08,weatherlink.com 1.10,2013-02-11 02:15:00,
2013-02-10 21:30:00,46.4,45.0,29.71,SSE,165,11.0,15.0,94,0.02,,,0.09,weatherlink.com 1.10,2013-02-11 02:30:00,
2013-02-10 21:45:00,47.0,45.0,29.69,SSE,162,8.0,20.0,94,0.01,,,0.09,weatherlink.com 1.10,2013-02-11 02:45:00,
2013-02-10 22:00:00,47.2,46.0,29.69,SE,146,5.0,16.0,94,0.01,,,0.09,weatherlink.com 1.10,2013-02-11 03:00:00,
2013-02-10 22:15:00,47.2,46.0,29.68,SSE,164,17.0,17.0,94,0.01,,,0.09,weatherlink.com 1.10,2013-02-11 03:15:00,
2013-02-10 22:30:00,47.3,46.0,29.68,SSE,153,5.0,16.0,94,0.00,,,0.09,weatherlink.com 1.10,2013-02-11 03:30:00,
2013-02-10 22:45:00,47.5,46.0,29.68,SSE,155,9.0,17.0,94,0.00,,,0.09,weatherlink.com 1.10,2013-02-11 03:45:00,
2013-02-10 23:00:00,47.7,46.0,29.67,SE,134,14.0,19.0,94,0.00,,,0.09,weatherlink.com 1.10,2013-02-11 04:00:00,
2013-02-10 23:15:00,47.8,46.0,29.67,SE,134,7.0,18.0,93,0.00,,,0.09,weatherlink.com 1.10,2013-02-11 04:15:00,
2013-02-10 23:30:00,47.9,46.0,29.66,South,184,8.0,17.0,93,0.00,,,0.09,weatherlink.com 1.10,2013-02-11 04:30:00,
2013-02-10 23:45:00,48.1,46.0,29.65,South,179,9.0,18.0,93,0.00,,,0.09,weatherlink.com 1.10,2013-02-11 04:45:00,